Regional Weather Roundup
Issued by NWS

Current Version | Previous Version | Text Only | Print | Product List | Glossary Off
Versions: 1 2 3 4 5 6 7 8 9 10 11 12 13 14 15 16 17 18 19 20 21 22 23 24 25 26 27 28 29 30 31 32 33 34 35 36 37 38 39 40 41 42 43 44 45 46 47 48 49 50

000
ASUS42 KFFC 291003
RWRGA
WEATHER ROUNDUP FOR GEORGIA
NATIONAL WEATHER SERVICE PEACHTREE CITY GA
600 AM EDT FRI JUL 29 2016

NOTE: "FAIR" INDICATES FEW OR NO CLOUDS BELOW 12,000 FEET WITH NO
SIGNIFICANT WEATHER AND/OR OBSTRUCTIONS TO VISIBILITY.

* = USE WITH CAUTION. THE STATIONS MARKED WITH AN ASTERISK MAY NOT
REPORT WEATHER SUCH AS PRECIPITATION, FOG, OR THUNDER AND ARE NOT
QUALITY CONTROLLED BY NWS.

THE REMARK "TC" DENOTES TEMPERATURE READING IN DEGREES CELSIUS.

GAZ001>058-291100-
NORTH GEORGIA

CITY           SKY/WX    TMP DP  RH WIND       PRES   REMARKS
ATLANTA        PTCLDY    73  71  93 W6        30.03S
ATHENS         PTCLDY    74  72  93 W5        30.00S
CHAMBLEE       PTCLDY    74  70  87 W6        30.03R
PEACHTREE CITY CLEAR     72  70  93 CALM      30.04S
ROME           CLOUDY    74  72  93 CALM      30.00S
WEST ATLANTA   CLEAR     73  70  90 CALM      30.03R
GAINESVILLE    MOCLDY    73  70  90 W9        30.04S
CARTERSVILLE   CLOUDY    74  71  91 CALM      30.02S


CITY           SKY/WX    TMP DP  RH WIND       PRES   REMARKS
DALTON*        CLOUDY    72  72 100 CALM      30.01S
MARIETTA       PTCLDY    73  71  95 W3        30.03R
CANTON*        MOCLDY    73  68  83 CALM      30.05R
BLAIRSVILLE*     N/A    N/A N/A N/A MISG      30.06S
$$

GAZ059>098-102>109-291100-
CENTRAL GEORGIA

CITY           SKY/WX    TMP DP  RH WIND       PRES   REMARKS
AUGUSTA-BUSH   CLEAR     77  70  79 W5        29.97R
AUGUSTA-DANIEL CLEAR     81  70  69 W6        29.99R
COLUMBUS       PTCLDY    77  69  76 NW5       30.02S
MACON          PTCLDY    76  68  76 W6        30.01R
ROBINS AFB     PTCLDY    80  69  70 W6        30.00S


CITY           SKY/WX    TMP DP  RH WIND       PRES   REMARKS
LAGRANGE*      PTCLDY    72  72 100 CALM      30.04S
MILLEDGEVILLE* PTCLDY    77  72  83 CALM      30.00S
$$

GAZ099>101-110>166-291100-
SOUTH GEORGIA

CITY           SKY/WX    TMP DP  RH WIND       PRES   REMARKS
SAVANNAH       CLEAR     78  70  76 W8        29.99R
VALDOSTA       CLEAR     74  73  97 CALM      30.04R
ALMA           CLEAR     75  73  93 CALM      30.02R
ST SIMONS      CLEAR     81  74  79 W7        30.01R
ALBANY         CLEAR     76  73  91 SW3       30.04S
HUNTER AFB     CLEAR     78  74  87 W7        29.97R
MOODY AFB      CLEAR     77  73  87 W5        30.03R
BRUNSWICK      CLEAR     79  77  94 W7        30.01S


CITY           SKY/WX    TMP DP  RH WIND       PRES   REMARKS
BAINBRIDGE*    CLEAR     77  73  88 CALM      30.03F
MOULTRIE*      CLEAR     77  73  88 NW5       30.04F
VIDALIA*       CLEAR     77  70  78 CALM      30.02R
WAYCROSS*      CLEAR     80  77  90 W6        30.03R
DOUGLAS*       CLEAR     77  72  83 CALM      30.04R
$$



USA.gov is the U.S. government's official web portal to all federal, state and local government web resources and services.